M-CUBED & EXP-1 PRIME (37855 NORAD) Tracking and Keplerian Element Data

This shows tracking and keplerian element data for the satellite.

Feedback or suggestion? Click here.




ElementValue
Catalog37855
NameM-CUBED & EXP-1 PRIME
Epoch Orbit60540
Epoch Day325.08302254
Epoch Year2022
RAAN167.6882
Inclination101.7164
Eccentricity0.0144203
Argument of Perigee312.0365
Mean Anonmoly46.8651
Mean Motion15.15812899
Decay Rate0.00010751
L11 37855U 11061F 22325.08302254 .00010751 00000+0 43735-3 0 9993
L22 37855 101.7164 167.6882 0144203 312.0365 46.8651 15.15812899605406



Live tracking and technical data element details for M-CUBED & EXP-1 PRIME (NORAD 37855). M-CUBED & EXP-1 PRIME can be tracked NOW for your location showing map with azimuth and elevation plus other details from your city location.







IsCatalogInMostPopularTable: catalog: 37855, numindb: 374
Update: records affected: 1



GetName: 37855 M-CUBED & EXP-1 PRIME

Hit Count: updated at: Fri, 02 Dec 2022 11:49:43 GMT